sat.trackr.live / text

‹ back to catalog

ONEWEB-0418

NORAD 50493 · 2021-132AA

PAYLOAD ACTIVE UNKNOWN

§ Identity

Operator
Country
UK
Launch date
2021-12-27
Launch site
TYMSC
Launch vehicle
Mass (kg)
RCS (m²)

Purposes: comms

External: N2YO · Heavens-Above · Gunter

§ Orbital elements

Epoch: 2026-05-25T01:07:13.846656Z

Period
109.20 min
Inclination
87.9169°
Eccentricity
0.0002040
Mean motion
13.18685442 rev/d
Perigee alt
1,188.2 km
Apogee alt
1,191.3 km
Semi-major
7,567.9 km
B*
2.9396e-5
RAAN
340.0610°
Arg perigee
95.3511°
Mean anomaly
264.7854°
Rev number
21,861

§ Raw data

ONEWEB-04181 50493U 21132AA  26145.04668804  .00000025  00000+0  29396-4 0  99932 50493  87.9169 340.0610 0002040  95.3511 264.7854 13.18685442218613

JSON: /api/v1/satellites/50493 · /tle

For live sub-satellite position, see the globe view (requires WebGL).

§ Visibility from observer

Set your observer location to see the next 7 days of passes ≥ 10°. The values pass through the URL so the page stays shareable.

No JS? Fill the form by hand. The geolocation button needs JavaScript.